| time (UTC) | temp F | wind direction | speed MPH | gust MPH | rain 1hr in | rain 24hr in | rain mn in | humidity % | barometer mb |
| 20260901114534 | 68 | 265 | 0.0 | 0.0 | 0.00 | 0.65 | 0.65 | 96 | 1017.4 |
| 20260901113029 | 68 | 265 | 0.0 | 0.0 | 0.00 | 0.65 | 0.65 | 96 | 1016.8 |
| 20260901111529 | 68 | 265 | 0.0 | 0.0 | 0.00 | 0.65 | 0.65 | 96 | 1017.1 |
| 20260901110028 | 68 | 265 | 0.0 | 0.0 | 0.00 | 0.65 | 0.65 | 96 | 1017.4 |
| 20260901104533 | 68 | 265 | 0.0 | 0.0 | 0.00 | 0.65 | 0.65 | 96 | 1017.3 |
| 20260901103026 | 68 | 265 | 0.0 | 0.0 | 0.00 | 0.65 | 0.65 | 96 | 1017.4 |
| 20260901101527 | 68 | 265 | 0.0 | 0.0 | 0.00 | 0.65 | 0.65 | 96 | 1017.1 |
| 20260901100024 | 68 | 265 | 0.0 | 0.0 | 0.00 | 0.65 | 0.65 | 96 | 1017.0 |
| 20260901094523 | 68 | 265 | 0.0 | 0.0 | 0.00 | 0.65 | 0.65 | 96 | 1017.1 |
| 20260901093021 | 68 | 265 | 0.0 | 0.0 | 0.00 | 0.65 | 0.65 | 96 | 1017.1 |
| 20260901091521 | 68 | 265 | 0.0 | 0.0 | 0.00 | 0.65 | 0.65 | 96 | 1017.2 |
| 20260901090020 | 68 | 265 | 0.0 | 0.0 | 0.00 | 0.65 | 0.65 | 96 | 1017.2 |
| 20260901084519 | 68 | 265 | 0.0 | 0.0 | 0.01 | 0.65 | 0.65 | 96 | 1017.3 |
| 20260901083019 | 68 | 265 | 0.0 | 0.0 | 0.01 | 0.65 | 0.65 | 96 | 1017.5 |
| 20260901081515 | 68 | 265 | 0.0 | 0.0 | 0.01 | 0.65 | 0.65 | 96 | 1017.7 |
| 20260901080014 | 67 | 265 | 0.0 | 0.0 | 0.01 | 0.65 | 0.65 | 96 | 1017.7 |
| 20260901074512 | 67 | 265 | 0.0 | 0.0 | 0.00 | 0.64 | 0.64 | 95 | 1017.8 |
| 20260901073012 | 67 | 265 | 0.0 | 0.0 | 0.02 | 0.64 | 0.64 | 95 | 1017.9 |
| 20260901071514 | 67 | 265 | 0.0 | 0.0 | 0.09 | 0.64 | 0.64 | 95 | 1017.9 |
| 20260901070009 | 67 | 265 | 0.0 | 0.0 | 0.23 | 0.64 | 0.64 | 95 | 1018.0 |
| 20260901064509 | 67 | 265 | 0.0 | 0.0 | 0.32 | 0.64 | 0.64 | 95 | 1018.0 |
| 20260901063016 | 67 | 265 | 0.0 | 0.0 | 0.42 | 0.62 | 0.62 | 95 | 1018.2 |
| 20260901061505 | 67 | 265 | 0.0 | 0.0 | 0.40 | 0.55 | 0.55 | 94 | 1018.3 |
| 20260901060003 | 67 | 265 | 0.0 | 1.0 | 0.31 | 0.40 | 0.40 | 94 | 1018.4 |
| 20260901054502 | 67 | 265 | 0.0 | 0.0 | 0.27 | 0.31 | 0.31 | 94 | 1018.5 |
| 20260901053121 | 68 | 265 | 0.0 | 2.0 | 0.20 | 0.20 | 0.20 | 93 | 1018.6 |
| 20260901051611 | 68 | 265 | 0.0 | 2.0 | 0.15 | 0.15 | 0.15 | 94 | 1018.7 |
| 20260901050055 | 68 | 265 | 0.0 | 0.0 | 0.09 | 0.09 | 0.09 | 93 | 1018.8 |
| 20260901044553 | 68 | 265 | 0.0 | 0.0 | 0.04 | 0.04 | 0.04 | 93 | 1018.8 |
| 20260901043100 | 69 | 265 | 0.0 | 0.0 | 0.00 | 0.00 | 0.00 | 93 | 1018.9 |
| 20260901041603 | 69 | 265 | 0.0 | 0.0 | 0.00 | 0.00 | 0.00 | 93 | 1018.8 |
| 20260901040050 | 69 | 265 | 0.0 | 0.0 | 0.00 | 0.00 | 0.00 | 93 | 1018.8 |
| 20260901034549 | 69 | 265 | 0.0 | 0.0 | 0.00 | 0.00 | 0.00 | 92 | 1018.8 |
| 20260901033048 | 69 | 265 | 0.0 | 0.0 | 0.00 | 0.00 | 0.00 | 93 | 1018.9 |
| 20260901031556 | 69 | 265 | 0.0 | 0.0 | 0.00 | 0.00 | 0.00 | 92 | 1019.1 |
| 20260901030045 | 69 | 265 | 0.0 | 0.0 | 0.00 | 0.00 | 0.00 | 92 | 1019.3 |
| 20260901024545 | 69 | 265 | 0.0 | 0.0 | 0.00 | 0.01 | 0.00 | 92 | 1019.4 |
| 20260901023045 | 69 | 265 | 0.0 | 0.0 | 0.00 | 0.01 | 0.00 | 92 | 1019.4 |
| 20260901021544 | 69 | 265 | 0.0 | 0.0 | 0.00 | 0.01 | 0.00 | 92 | 1019.4 |
| 20260901020043 | 69 | 265 | 0.0 | 0.0 | 0.00 | 0.01 | 0.00 | 91 | 1019.5 |
| 20260901014546 | 69 | 265 | 0.0 | 2.0 | 0.00 | 0.03 | 0.00 | 91 | 1019.5 |
| 20260901013042 | 69 | 265 | 0.0 | 0.0 | 0.00 | 0.03 | 0.00 | 91 | 1019.5 |
| 20260901011542 | 69 | 265 | 0.0 | 0.0 | 0.00 | 0.03 | 0.00 | 91 | 1019.6 |
| 20260901010041 | 69 | 265 | 0.0 | 0.0 | 0.00 | 0.03 | 0.00 | 90 | 1019.5 |
| 20260901004542 | 69 | 265 | 0.0 | 0.0 | 0.00 | 0.06 | 0.00 | 90 | 1019.4 |
| 20260901003040 | 70 | 265 | 0.0 | 0.0 | 0.00 | 0.06 | 0.00 | 90 | 1019.4 |
| 20260901001550 | 70 | 265 | 0.0 | 0.0 | 0.00 | 0.06 | 0.00 | 89 | 1019.3 |
| 20260901000039 | 70 | 265 | 0.0 | 0.0 | 0.00 | 0.06 | 0.00 | 89 | 1019.1 |
| 20260831234545 | 70 | 265 | 0.0 | 0.0 | 0.00 | 0.06 | 0.00 | 89 | 1019.4 |
| 20260831233037 | 70 | 265 | 0.0 | 0.0 | 0.00 | 0.06 | 0.00 | 89 | 1019.3 |
| 20260831231536 | 71 | 265 | 0.0 | 0.0 | 0.00 | 0.06 | 0.00 | 88 | 1019.5 |
| 20260831230036 | 71 | 265 | 0.0 | 0.0 | 0.00 | 0.06 | 0.00 | 87 | 1019.6 |
| 20260831224535 | 71 | 265 | 0.0 | 0.0 | 0.00 | 0.06 | 0.00 | 86 | 1019.6 |
| 20260831223035 | 72 | 265 | 0.0 | 0.0 | 0.00 | 0.06 | 0.00 | 83 | 1019.7 |
| 20260831221536 | 72 | 265 | 0.0 | 1.0 | 0.00 | 0.06 | 0.00 | 83 | 1019.8 |
| 20260831220034 | 72 | 265 | 0.0 | 4.0 | 0.00 | 0.06 | 0.00 | 81 | 1019.8 |
| 20260831214533 | 73 | 265 | 0.0 | 1.0 | 0.00 | 0.06 | 0.00 | 81 | 1019.8 |
| 20260831213034 | 73 | 265 | 0.0 | 0.0 | 0.00 | 0.06 | 0.00 | 82 | 1019.6 |
| 20260831211534 | 74 | 265 | 0.0 | 2.0 | 0.00 | 0.06 | 0.00 | 79 | 1019.6 |
| 20260831210032 | 74 | 265 | 0.0 | 2.0 | 0.00 | 0.06 | 0.00 | 78 | 1019.7 |
| 20260831204531 | 75 | 265 | 0.0 | 1.0 | 0.00 | 0.06 | 0.00 | 77 | 1019.6 |
| 20260831203034 | 75 | 265 | 0.0 | 1.0 | 0.00 | 0.06 | 0.00 | 78 | 1019.4 |
| 20260831201535 | 76 | 265 | 0.0 | 2.0 | 0.00 | 0.06 | 0.00 | 73 | 1019.7 |
| 20260831200030 | 76 | 265 | 0.0 | 2.0 | 0.00 | 0.06 | 0.00 | 68 | 1019.9 |
| 20260831194529 | 77 | 265 | 0.0 | 2.0 | 0.00 | 0.06 | 0.00 | 70 | 1020.1 |
| 20260831193030 | 77 | 265 | 0.0 | 2.0 | 0.00 | 0.06 | 0.00 | 69 | 1020.1 |
| 20260831191528 | 77 | 265 | 0.0 | 2.0 | 0.00 | 0.06 | 0.00 | 73 | 1020.2 |
| 20260831190027 | 79 | 265 | 0.0 | 2.0 | 0.00 | 0.06 | 0.00 | 66 | 1020.6 |
| 20260831184524 | 78 | 265 | 0.0 | 5.0 | 0.00 | 0.06 | 0.00 | 66 | 1020.5 |
| 20260831183023 | 78 | 265 | 0.0 | 1.0 | 0.00 | 0.06 | 0.00 | 62 | 1020.6 |
| 20260831181523 | 77 | 265 | 1.0 | 3.0 | 0.00 | 0.06 | 0.00 | 58 | 1020.7 |
| 20260831180024 | 77 | 265 | 1.0 | 4.0 | 0.00 | 0.06 | 0.00 | 66 | 1021.1 |
| 20260831174521 | 77 | 265 | 0.0 | 2.0 | 0.00 | 0.06 | 0.00 | 62 | 1021.3 |
| 20260831173020 | 77 | 265 | 1.0 | 4.0 | 0.00 | 0.06 | 0.00 | 57 | 1021.2 |
| 20260831171523 | 78 | 265 | 0.0 | 4.0 | 0.00 | 0.06 | 0.00 | 63 | 1021.0 |
| 20260831170022 | 77 | 265 | 0.0 | 4.0 | 0.00 | 0.06 | 0.00 | 64 | 1021.0 |
| 20260831164519 | 78 | 264 | 1.0 | 2.0 | 0.00 | 0.06 | 0.00 | 66 | 1021.3 |
| 20260831163014 | 77 | 264 | 0.0 | 5.0 | 0.00 | 0.06 | 0.00 | 63 | 1021.4 |
| 20260831161517 | 77 | 265 | 0.0 | 3.0 | 0.00 | 0.06 | 0.00 | 62 | 1021.6 |
| 20260831160012 | 76 | 265 | 1.0 | 4.0 | 0.00 | 0.06 | 0.00 | 67 | 1021.6 |
| 20260831154504 | 74 | 265 | 0.0 | 2.0 | 0.00 | 0.06 | 0.00 | 73 | 1021.5 |
| 20260831153004 | 73 | 265 | 0.0 | 3.0 | 0.00 | 0.06 | 0.00 | 70 | 1021.7 |
| 20260831151503 | 73 | 265 | 0.0 | 3.0 | 0.00 | 0.06 | 0.00 | 74 | 1021.6 |
| 20260831144557 | 72 | 265 | 0.0 | 4.0 | 0.00 | 0.06 | 0.00 | 83 | 1021.6 |
| 20260831143109 | 70 | 231 | 0.0 | 4.0 | 0.00 | 0.06 | 0.00 | 80 | 1021.7 |
| 20260831141551 | 69 | 212 | 0.0 | 3.0 | 0.00 | 0.06 | 0.00 | 90 | 1021.6 |
| 20260831140051 | 68 | 245 | 0.0 | 0.0 | 0.00 | 0.06 | 0.00 | 93 | 1021.5 |
| 20260831134549 | 68 | 258 | 0.0 | 0.0 | 0.00 | 0.06 | 0.00 | 94 | 1021.5 |
| 20260831133047 | 68 | 258 | 0.0 | 0.0 | 0.00 | 0.06 | 0.00 | 96 | 1021.4 |
| 20260831131549 | 67 | 258 | 0.0 | 0.0 | 0.00 | 0.06 | 0.00 | 96 | 1021.4 |
| 20260831130051 | 67 | 161 | 0.0 | 0.0 | 0.00 | 0.06 | 0.00 | 96 | 1021.2 |
| 20260831124546 | 66 | 161 | 0.0 | 0.0 | 0.00 | 0.06 | 0.00 | 96 | 1021.4 |
| 20260831123045 | 66 | 161 | 0.0 | 0.0 | 0.00 | 0.06 | 0.00 | 96 | 1021.4 |
| 20260831121544 | 65 | 161 | 0.0 | 0.0 | 0.00 | 0.06 | 0.00 | 96 | 1021.4 |
| 20260831120043 | 65 | 161 | 0.0 | 0.0 | 0.00 | 0.06 | 0.00 | 96 | 1021.4 |